Wind_Speed
44 47 49 50 53 56 57 57 59 56 52 55 58 60 62 63 64 66 66 67 69 70 73 77 82 85 88 92 95 99 103 106 107 109 110 111 110 109
46 48 50 53 55 56 57 59 57 59 61 62 62 63 63 62 63 64 66 69 72 76 81 86 90 93 98 101 106 109 107 104 98 91 85 81 76 73
47 49 52 54 58 59 59 59 62 64 65 65 67 66 64 64 65 67 71 75 80 85 90 95 100 104 108 107 100 90 82 75 67 60 55 53 54 54
48 50 53 57 61 59 61 63 64 64 66 67 66 64 66 68 72 75 79 83 89 95 100 105 108 105 91 77 66 58 50 47 46 43 44 43 42 42
50 54 55 60 59 63 65 65 65 66 67 67 65 67 70 74 77 82 88 93 98 105 107 101 83 68 60 53 47 42 45 46 44 44 42 42 43 41
53 54 58 61 63 65 63 64 66 66 65 66 68 71 75 79 84 88 92 101 104 99 82 66 57 58 57 55 52 49 47 43 43 41 39 41 40 39
56 58 60 62 62 63 65 66 65 64 67 70 72 75 80 86 92 97 101 102 81 63 58 55 55 55 53 54 55 55 52 44 44 42 39 41 38 38
57 59 61 61 63 66 66 64 65 69 73 75 77 83 90 96 99 102 99 69 48 52 52 48 52 49 50 51 51 53 54 51 47 46 42 42 41 39
57 59 60 64 64 63 63 66 69 73 77 81 87 92 96 102 102 85 58 51 48 50 50 48 52 48 49 47 46 49 49 51 51 47 44 45 42 41
58 61 62 61 61 64 67 70 72 76 83 89 95 100 104 97 73 52 48 46 47 50 54 49 51 49 47 45 48 49 48 49 49 47 42 43 43 42
59 59 59 61 65 68 71 73 77 84 91 100 104 101 82 59 49 46 47 47 45 48 54 52 50 47 44 40 45 47 48 47 44 44 42 41 42 42
56 59 63 67 71 73 77 82 87 93 99 104 87 67 49 45 47 48 47 47 47 45 55 52 48 46 36 34 37 42 44 44 40 38 39 37 39 41
59 64 68 72 76 80 85 90 94 99 94 72 52 41 42 44 46 48 49 49 49 49 53 52 42 38 34 29 30 34 38 41 39 34 33 31 33 36
65 67 72 76 81 88 93 97 98 80 56 40 36 38 40 42 46 47 50 52 53 52 48 45 37 34 31 29 28 29 34 38 37 34 28 26 26 27
70 74 79 84 91 95 97 86 64 45 33 33 34 37 40 43 46 48 51 52 50 48 44 39 35 31 31 29 25 25 27 31 34 27 20 21 22 24
76 82 87 93 96 89 69 51 35 27 29 32 34 38 42 45 48 51 51 48 42 37 38 34 30 29 28 30 23 15 20 22 27 21 17 20 24 29
84 90 95 92 77 59 42 27 24 26 30 33 36 39 43 47 50 50 45 40 37 30 26 27 28 30 31 26 13 8 13 16 15 19 22 24 28 29
93 95 84 67 49 32 20 19 22 26 30 33 37 41 46 47 43 41 38 35 26 22 19 20 23 23 24 22 4 3 9 14 18 20 20 16 19 31
91 73 55 38 20 11 14 17 22 26 29 34 38 44 43 40 39 36 33 26 18 17 20 22 20 14 11 14 18 14 8 11 15 18 19 20 18 25
59 39 23 8 7 10 13 18 22 25 30 34 40 41 37 35 32 28 23 16 14 17 20 18 14 10 9 10 14 19 19 16 17 16 21 26 27 29
26 9 6 6 7 11 15 17 21 27 30 35 40 37 33 28 26 24 22 21 18 16 14 14 15 16 15 11 13 17 23 25 22 21 21 21 23 24
9 8 7 8 11 14 15 18 24 28 31 34 37 32 28 28 26 24 21 18 17 17 17 18 16 15 14 13 16 19 21 23 29 31 29 29 31 31
10 9 9 11 14 16 17 20 24 28 30 32 34 29 28 29 28 26 24 22 21 20 18 20 20 19 17 17 17 25 25 27 31 32 35 39 39 39
Wind_Direction
294 295 296 297 297 298 297 296 296 295 294 295 295 295 295 295 295 295 296 295 295 294 293 292 291 292 291 290 290 288 286 285 282 279 276 274 273 270
294 295 295 294 297 298 296 297 296 297 298 297 298 297 296 295 295 295 295 295 295 295 294 293 294 295 294 293 291 289 287 285 283 280 278 275 271 268
292 291 291 293 297 298 298 297 298 299 299 300 300 299 298 296 296 296 296 296 296 295 296 297 297 297 295 293 291 288 287 286 282 276 272 271 268 264
292 291 291 290 296 296 296 298 299 300 301 300 299 298 298 298 298 298 298 299 300 300 300 300 299 298 295 292 292 292 286 279 275 274 276 274 272 268
291 287 287 292 294 295 297 299 300 301 300 299 299 300 301 301 300 301 303 303 303 303 301 300 298 295 293 294 292 286 284 279 272 274 272 270 268 267
286 286 292 291 294 297 299 300 300 299 298 299 301 302 303 302 303 303 304 305 304 303 300 297 295 293 291 291 287 284 284 276 271 272 271 269 267 264
289 290 290 294 297 298 299 299 298 298 299 300 303 303 301 303 304 305 306 305 303 296 294 297 296 297 297 292 285 281 279 275 270 271 268 269 265 262
288 292 294 298 299 300 299 300 301 302 303 303 302 303 305 307 306 306 306 303 298 296 299 302 300 300 298 295 292 284 275 273 270 269 269 268 267 265
293 296 298 299 299 299 300 302 303 304 304 304 305 306 307 305 307 307 302 299 301 300 300 299 296 298 298 297 293 288 283 270 264 266 264 264 265 263
297 297 298 298 299 301 302 303 304 303 305 306 307 307 306 308 305 300 298 300 302 302 300 304 301 300 298 297 293 291 286 274 262 258 260 261 262 260
298 299 300 302 303 302 303 303 304 305 307 308 308 308 306 301 298 300 301 302 302 304 301 308 302 300 299 294 293 293 288 278 267 254 256 258 258 257
302 303 304 303 304 303 303 304 306 306 306 308 307 302 300 301 302 305 305 303 303 306 302 308 303 297 294 285 289 288 288 284 274 259 254 256 256 255
305 304 305 306 305 304 305 306 306 307 308 304 299 297 302 304 306 307 307 306 307 307 306 308 306 300 297 290 288 285 280 280 281 273 260 257 255 257
304 304 305 306 306 307 307 307 309 308 306 300 298 301 305 307 307 308 307 307 307 307 307 307 308 304 299 300 295 282 275 273 274 274 272 267 257 258
305 304 305 305 307 307 309 310 310 309 303 302 304 307 308 309 307 306 306 307 308 308 309 309 310 310 307 305 301 289 274 272 275 278 278 272 271 268
308 306 306 308 310 310 310 310 309 306 307 307 309 310 312 313 311 310 308 308 309 305 307 308 314 312 310 308 311 287 270 263 275 287 281 275 277 277
307 308 310 311 309 310 310 308 313 313 312 314 316 318 318 316 313 312 312 311 310 304 301 309 317 320 319 323 320 271 263 276 281 279 284 280 277 275
309 311 311 308 308 306 308 316 317 317 321 323 324 324 322 319 319 320 319 316 311 307 311 318 319 318 316 327 84 3 304 297 295 292 289 273 264 274
313 312 309 310 309 315 321 322 324 328 328 330 331 328 329 331 329 327 324 323 319 325 323 328 330 332 317 315 337 351 341 301 293 295 296 292 280 271
314 311 316 327 336 332 334 334 337 336 336 338 338 338 340 340 341 343 346 354 345 336 330 335 350 1 3 344 323 317 335 338 329 318 304 299 291 283
320 347 32 3 353 348 343 345 343 344 345 346 347 349 350 355 359 3 1 3 2 360 1 3 7 0 356 352 340 338 338 339 330 320 310 300 291 289
64 37 17 13 2 355 353 351 352 352 352 353 355 359 4 13 15 15 16 15 15 19 18 10 1 355 353 345 345 342 334 331 327 328 321 309 301 297
28 20 19 11 1 0 358 355 354 354 357 357 1 4 9 11 12 14 17 20 19 14 10 2 2 360 354 354 351 344 342 334 331 321 310 307 306 309
Height
5693 5688 5684 5680 5675 5670 5665 5660 5655 5653 5652 5646 5640 5633 5626 5619 5611 5605 5598 5591 5585 5578 5572 5565 5558 5551 5543 5535 5528 5519 5509 5502 5496 5489 5483 5479 5476 5475
5682 5677 5673 5667 5662 5657 5652 5646 5640 5636 5632 5627 5622 5615 5609 5602 5594 5587 5580 5572 5565 5557 5548 5539 5530 5523 5512 5504 5493 5481 5471 5461 5452 5448 5444 5441 5439 5438
5670 5665 5660 5654 5649 5643 5638 5632 5625 5619 5614 5610 5601 5594 5589 5581 5575 5568 5560 5553 5544 5533 5522 5512 5501 5489 5478 5465 5454 5444 5436 5429 5424 5421 5420 5419 5417 5417
5658 5653 5647 5642 5635 5629 5623 5617 5610 5603 5596 5592 5584 5576 5568 5560 5553 5546 5537 5527 5515 5503 5491 5480 5467 5452 5442 5431 5425 5420 5415 5410 5408 5407 5406 5404 5403 5403
5645 5639 5634 5628 5621 5615 5608 5601 5594 5587 5578 5571 5566 5557 5549 5539 5533 5523 5512 5500 5486 5471 5459 5446 5434 5425 5418 5412 5409 5405 5401 5398 5396 5395 5393 5391 5390 5390
5632 5626 5620 5614 5607 5600 5593 5585 5578 5570 5561 5554 5547 5539 5529 5519 5509 5499 5492 5473 5460 5440 5428 5421 5416 5408 5402 5397 5393 5389 5386 5383 5382 5381 5379 5378 5378 5378
5618 5612 5606 5598 5591 5583 5576 5569 5561 5553 5544 5536 5528 5518 5506 5496 5485 5475 5463 5449 5434 5417 5412 5408 5399 5392 5384 5377 5373 5371 5368 5367 5366 5365 5366 5364 5365 5365
5605 5598 5590 5583 5575 5567 5559 5551 5543 5532 5523 5514 5505 5494 5483 5470 5458 5446 5434 5422 5419 5399 5396 5393 5382 5379 5369 5361 5355 5350 5348 5350 5350 5349 5350 5350 5350 5352
5591 5584 5577 5568 5560 5553 5544 5536 5526 5514 5501 5491 5483 5470 5459 5445 5434 5420 5409 5403 5397 5387 5382 5382 5369 5366 5354 5347 5340 5333 5331 5330 5332 5333 5334 5334 5336 5337
5577 5570 5562 5554 5546 5538 5529 5520 5510 5497 5485 5472 5458 5445 5432 5418 5406 5400 5395 5391 5384 5373 5361 5365 5354 5348 5341 5332 5322 5317 5314 5310 5312 5316 5318 5318 5319 5321
5562 5554 5547 5538 5529 5520 5511 5501 5490 5477 5462 5446 5431 5419 5407 5397 5390 5387 5381 5375 5369 5360 5345 5345 5339 5332 5326 5319 5308 5301 5296 5293 5294 5297 5302 5303 5304 5305
5548 5539 5529 5521 5512 5501 5491 5481 5470 5457 5442 5426 5407 5395 5388 5382 5376 5370 5365 5359 5352 5349 5330 5330 5323 5313 5315 5308 5298 5288 5283 5278 5279 5282 5286 5289 5290 5291
5533 5524 5514 5505 5495 5483 5471 5459 5446 5434 5419 5402 5392 5384 5378 5371 5364 5356 5348 5342 5337 5330 5317 5311 5309 5301 5295 5295 5289 5280 5274 5269 5267 5269 5271 5275 5277 5279
5518 5508 5497 5486 5474 5462 5449 5436 5422 5407 5395 5388 5383 5376 5370 5361 5353 5345 5336 5328 5320 5313 5308 5298 5294 5288 5284 5281 5277 5272 5264 5261 5259 5259 5261 5263 5265 5267
5501 5489 5477 5466 5454 5440 5425 5411 5399 5391 5384 5379 5374 5367 5360 5352 5343 5335 5325 5316 5309 5298 5292 5287 5282 5278 5272 5269 5266 5261 5257 5254 5250 5251 5253 5254 5255 5256
5482 5469 5456 5443 5429 5417 5403 5394 5387 5381 5377 5372 5366 5359 5351 5341 5330 5321 5313 5304 5298 5291 5281 5277 5274 5269 5265 5260 5255 5252 5249 5248 5246 5246 5247 5247 5247 5246
5463 5449 5433 5418 5404 5394 5387 5382 5378 5374 5370 5365 5358 5350 5341 5330 5318 5307 5299 5292 5285 5282 5278 5272 5266 5261 5256 5250 5249 5247 5246 5244 5243 5242 5240 5240 5237 5234
5439 5424 5408 5396 5389 5383 5379 5376 5373 5369 5364 5358 5350 5341 5330 5319 5308 5297 5288 5282 5277 5273 5271 5268 5264 5259 5252 5248 5248 5247 5244 5242 5239 5236 5233 5233 5231 5225
5413 5398 5388 5383 5379 5377 5375 5373 5369 5365 5359 5352 5343 5333 5321 5309 5299 5289 5281 5275 5271 5269 5265 5262 5258 5255 5253 5249 5245 5242 5241 5238 5234 5230 5227 5225 5225 5222
5391 5382 5378 5377 5376 5375 5373 5370 5367 5362 5355 5347 5337 5325 5314 5303 5294 5284 5277 5273 5270 5267 5263 5259 5256 5254 5251 5249 5246 5241 5236 5234 5230 5227 5222 5217 5212 5209
5380 5377 5377 5377 5375 5374 5371 5369 5365 5359 5351 5343 5331 5320 5311 5302 5293 5285 5279 5274 5270 5267 5263 5260 5257 5253 5251 5248 5244 5240 5234 5227 5223 5219 5214 5209 5203 5198
5381 5379 5378 5377 5375 5373 5370 5366 5361 5355 5347 5339 5329 5320 5311 5303 5295 5288 5283 5277 5272 5268 5265 5261 5259 5255 5251 5247 5243 5239 5233 5227 5219 5211 5204 5196 5190 5185
5383 5382 5380 5378 5375 5372 5369 5364 5359 5353 5346 5338 5330 5321 5312 5304 5297 5290 5284 5279 5275 5271 5268 5263 5259 5254 5250 5246 5241 5236 5229 5222 5214 5205 5195 5183 5174 5167